Location: *
(31.2983°S, 151.4094°E)
Time: 04:28:40
(UTC+00:00)

Cosmos 1464 Rocket - Pass Details

Date: 25 August 2019
Orbit: 953 x 1001 km, 82.9° (Epoch: 21 September)

Event Time Altitude Azimuth Distance (km) Brightness Sun altitude
Rises 17:54:56 0° 5° (N) 3,701 7.0 -31.4°
Reaches altitude 10° 17:57:28 10° 8° (N) 2,763 6.4 -30.9°
Maximum altitude 18:03:44 64° 88° (E) 1,112 4.4 -29.5°
Drops below altitude 10° 18:10:04 10° 167° (SSE) 2,794 6.6 -28.2°
Sets 18:12:38 0° 170° (S) 3,747 7.2 -27.6°
